Overview Statistics Trail Chart Weather Telemetry Raw packets
 

This is the latest recevied weather packets stored in our database for station/object LU4EGV-13. If no packets are shown the sender has not sent any weather packets the latest 10 day(s).

<< 52 53 54 55 56 57 >>
Time Temp. Humidity Pressure Rain* Wind** Luminosity Snow
1787862770 15° C 81% 1004 hPa 0 mm - - -
1787862164 15.56° C 80% 1003.4 hPa 0 mm - - -
1787861558 15.56° C 81% 1003.4 hPa 0 mm - - -
1787860951 15.56° C 82% 1003.3 hPa 0 mm - - -
1787860346 14.44° C 82% 1003.5 hPa 0 mm - - -
1787859741 15° C 82% 1004 hPa 0 mm - - -
1787859135 15° C 81% 1003.3 hPa 0 mm - - -
1787858527 14.44° C 81% 1003 hPa 0 mm - - -
1787857921 15° C 79% 1004 hPa 0 mm - - -
1787857316 15° C 77% 1004.4 hPa 0 mm - - -
1787856709 15.56° C 77% 1005.1 hPa 0 mm - - -
1787856102 15.56° C 76% 1003.6 hPa 0 mm - - -
1787855496 15.56° C 75% 1003.4 hPa 0 mm - - -
1787854890 15.56° C 75% 1003 hPa 0 mm - - -
1787854284 16.11° C 74% 1002.7 hPa 0 mm - - -
1787853679 16.67° C 76% 1002.5 hPa 0 mm - - -
1787852468 15.56° C 77% 1003.6 hPa 0 mm - - -
1787851858 15.56° C 80% 1003 hPa 0 mm - - -
1787851253 15.56° C 80% 1002.8 hPa 0 mm - - -
1787850656 16.11° C 80% 1001.9 hPa 0 mm - - -
1787850043 16.11° C 84% 1001 hPa 0 mm - - -
1787849447 14.44° C 88% 1002.3 hPa 0 mm - - -
1787848835 14.44° C 88% 1003.3 hPa 0 mm - - -
1787848234 13.89° C 89% 1003.1 hPa 0 mm - - -
1787847623 13.33° C 89% 1003.4 hPa 0 mm - - -

* Rain latest hour (hover to see other rain measurements)
** Current wind speed in m/s (hover to see current wind gust speed)